This is the latest recevied weather packets stored in our database for station/object NC4M. If no packets are shown the sender has not sent any weather packets the latest 10 day(s).
| Time | Temp. | Humidity | Pressure | Rain* | Wind** | Luminosity | Snow |
|---|---|---|---|---|---|---|---|
| 1788032137 | 31.67° C | 46% | 1018.8 hPa | 0 mm | - | 254 W/m² | - |
| 1788031833 | 31.67° C | 43% | 1019.1 hPa | 0 mm | - | 235 W/m² | - |
| 1788031533 | 32.22° C | 44% | 1018.9 hPa | 0 mm | - | 227 W/m² | - |
| 1788031232 | 32.22° C | 43% | 1018.9 hPa | 0 mm | - | 266 W/m² | - |
| 1788030932 | 31.67° C | 43% | 1019.1 hPa | 0 mm | - | 241 W/m² | - |
| 1788030631 | 31.67° C | 43% | 1019.2 hPa | 0 mm | - | 199 W/m² | - |
| 1788030326 | 32.22° C | 43% | 1019.3 hPa | 0 mm | - | 473 W/m² | - |
| 1788030022 | 32.22° C | 41% | 1019.3 hPa | 0 mm | - | 218 W/m² | - |
| 1788029722 | 32.22° C | 45% | 1019.3 hPa | 0 mm | - | 190 W/m² | - |
| 1788029417 | 32.22° C | 41% | 1019.3 hPa | 0 mm | - | 164 W/m² | - |
| 1788029116 | 32.22° C | 42% | 1019.4 hPa | 0 mm | - | 128 W/m² | - |
| 1788028810 | 32.78° C | 41% | 1019.6 hPa | 0 mm | - | 112 W/m² | - |
| 1788028510 | 32.78° C | 43% | 1019.4 hPa | 0 mm | - | 95 W/m² | - |
| 1788028206 | 32.22° C | 41% | 1019.6 hPa | 0 mm | - | 109 W/m² | - |
| 1788027901 | 32.78° C | 43% | 1019.5 hPa | 0 mm | - | 788 W/m² | - |
| 1788027595 | 32.78° C | 43% | 1019.6 hPa | 0 mm | - | 894 W/m² | - |
| 1788027290 | 32.22° C | 48% | 1019.5 hPa | 0 mm | - | 891 W/m² | - |
| 1788026989 | 32.22° C | 41% | 1019.7 hPa | 0 mm | - | 842 W/m² | - |
| 1788026684 | 31.67° C | 46% | 1019.8 hPa | 0 mm | - | 868 W/m² | - |
| 1788026075 | 32.22° C | 43% | 1020 hPa | 0 mm | - | 890 W/m² | - |
| 1788025774 | 31.67° C | 44% | 1020 hPa | 0 mm | - | 892 W/m² | - |
| 1788025473 | 31.67° C | 43% | 1020.2 hPa | 0 mm | - | 837 W/m² | - |
| 1788025170 | 31.67° C | 42% | 1020.1 hPa | 0 mm | - | 887 W/m² | - |
| 1788024869 | 31.11° C | 47% | 1020.5 hPa | 0 mm | - | 879 W/m² | - |
| 1788024565 | 32.22° C | 42% | 1020.6 hPa | 0 mm | - | 866 W/m² | - |
* Rain latest hour (hover to see other rain measurements)
** Current wind speed in m/s (hover to see current wind gust speed)